Regional Weather Roundup
Issued by NWS Huntsville, AL

Home | Current Version | Previous Version | Text Only | Print | Product List | Glossary On
Versions: 1 2 3 4 5 6 7 8 9 10 11 12 13 14 15 16 17 18 19 20 21 22 23 24 25 26 27
000
ASUS44 KHUN 271510
RWRHUN

WEATHER ROUNDUP FOR THE TENNESSEE VALLEY
NATIONAL WEATHER SERVICE HUNTSVILLE AL
1000 AM CDT MON MAR 27 2017

ALZ001>004-271600-
NORTHWEST ALABAMA

CITY           SKY/WX    TMP DP  RH WIND       PRES   REMARKS
COURTLAND HCN    N/A     68 N/A N/A S10         N/A
RUSSELLVILLE     N/A     68 N/A N/A MISG        N/A
SHOALS AIRPORT PTSUNNY   71  61  70 S10       29.99F
$$

ALZ005>007-016-271600-
NORTH CENTRAL ALABAMA

CITY           SKY/WX    TMP DP  RH WIND       PRES   REMARKS
CULLMAN AG STN   N/A     68 N/A N/A S7          N/A
DECATUR AP     PTSUNNY   69  63  81 SW10      30.03S
HUNTSVILLE AP  CLOUDY    72  63  73 SW13      30.02F
MERIDIANVILLE  CLOUDY    68  59  73 S13       30.04R
REDSTONE ARSN  MOSUNNY   71  62  74 SW14G21   30.02S
VINEMONT AP    PTSUNNY   68  62  80 S12       30.06F
$$

ALZ008>010-271600-
NORTHEAST ALABAMA

CITY           SKY/WX    TMP DP  RH WIND       PRES   REMARKS
ALBERTVILLE    PTSUNNY   70  66  88 S14G21    30.05F
FORT PAYNE     MOSUNNY   68  59  73 SW9       30.06F
SCOTTSBORO AP  MOSUNNY   70  63  78 SW7       30.05F
SCOTTSBORO HCN   N/A     68 N/A N/A MISG        N/A
VALLEY HEAD      N/A     66 N/A N/A MISG        N/A
$$

TNZ076-096-097-271600-
SOUTHEASTERN MIDDLE TENNESSEE

CITY           SKY/WX    TMP DP  RH WIND       PRES   REMARKS
TULLAHOMA      CLOUDY    64  61  88 S9        30.05R
WINCHESTER     PTSUNNY   70  61  73 SW8       30.04F
$$

...SURROUNDING SITES...

CITY           SKY/WX    TMP DP  RH WIND       PRES   REMARKS
ATLANTA        CLOUDY    68  62  81 SW7       30.13S
ANNISTON       CLOUDY    71  64  78 S5        30.09F
BIRMINGHAM     CLOUDY    72  63  73 S14       30.07F
CHATTANOOGA    PTSUNNY   68  61  78 S8        30.06F
CORINTH        PTSUNNY   68  63  83 S13G18    29.92F
DALTON         CLOUDY    64  63  94 SE6       30.09F
GADSDEN        CLOUDY    70  63  78 S7        30.08S
GOLDEN TRNGL   CLOUDY    68  61  77 S10       29.95F
HALEYVILLE     CLOUDY    67  63  87 S12       30.04S
JACKSON TN     PTSUNNY   66  63  90 S7        29.92S
MEMPHIS        CLOUDY    70  64  81 SW5       29.90R
NASHVILLE      PTSUNNY   69  60  73 S15G21    29.99R
OXFORD MS      FAIR      68  63  83 SW14G21   29.95R
ROME           CLOUDY    70  61  73 CALM      30.08F
SAVANNAH       PTSUNNY   70  63  78 SW12G21   29.94S
TUPELO         CLOUDY    67  62  84 SE13      29.94F
TUSCALOOSA     CLOUDY    72  65  78 S13       30.02F
$$

...GULF COAST WEATHER...

CITY           SKY/WX    TMP DP  RH WIND       PRES   REMARKS
GULFPORT       CLOUDY    76  70  82 SE16      30.03S
PASCAGOULA     PTSUNNY   75  67  76 S7        30.05S
MOBILE         PTSUNNY   77  66  68 SE10G20   30.06F
GULF SHORES    CLOUDY    71  71 100 SE10      30.09R
PENSACOLA      CLOUDY    74  69  85 SE10      30.09S
DESTIN         CLOUDY    71  69  93 SE10      30.12S
PANAMA CITY    SUNNY     70  70 100 E3        30.13S
APPALACHICOLA  MOSUNNY   73  66  78 SE7       30.14R
$$





USA.gov is the U.S. government's official web portal to all federal, state and local government web resources and services.